Вернуться в каталог

SL-8 DEB

АктивенLEO
NORAD 27748·DEBRIS·🇷🇺 Russia

Запущен Feb 12, 1991 с Plesetsk Cosmodrome

Loading…

Ближайшие Пролёты (ближайшие 24 часа)

TLE

СвежийSource: Space-Track

Эпоха: Sep 14, 2026, 00:33 UTC

1 27748U 91009DD  26257.02339597  .00000051  00000-0  60769-3 0  9994
2 27748  74.0486 116.0288 0174629 171.7861 340.9925 12.19647137304465

Отслеживайте SL-8 DEB в реальном времени с AllMySat

Download on the App Store